User: anonymous   Login
Location: Oshawa
(43.9000°N, 78.8670°W)
Time: 20:42:14
(UTC-05:00)
Language:

Hubble Space Telescope - Orbit

View from above orbital plane
View from above orbital plane
View from above satellite
View from above satellite

Ground track
Ground track

The orbit data is extracted from the following two-line orbital elements,

1 20580U 90037B   17328.56142708  .00000676  00000-0  30616-4 0  9997
2 20580  28.4708  27.6859 0002964  97.1407  47.8832 15.08927899314538
Epoch (UTC): 24 November 2017 13:28:27
Eccentricity: 0.0002964
inclination: 28.4708°
perigee height: 537 km
apogee height: 541 km
right ascension of ascending node: 27.6859°
argument of perigee: 97.1407°
revolutions per day: 15.08927899
mean anomaly at epoch: 47.8832°
orbit number at epoch: 31453

The dashed part of the orbit path shows where the satellite is in the earth's shadow,  

DLR